Location: *
(13.0000°N, 151.6000°E)
Time: 15:05:39
(UTC+00:00)

Daily predictions for brighter satellites

Satellite Brightness Start Highest point End
(mag) Time Altitude Azimuth Time Altitude Azimuth Time Altitude Azimuth
CENTAUR R/B 4.2 17:07:21 24° NE 17:07:21 24° NE 17:09:43 10° NE
Hubble Space Telescope 3.1 17:39:58 22° ENE 17:39:58 22° ENE 17:41:47 10° E
ATLAS 3B R/B 2.7 17:52:35 47° S 17:54:40 75° ESE 18:01:19 10° NNE
Cosmos 2227 Rocket 4.4 17:59:09 12° NNW 17:59:09 12° NNW 17:59:33 10° NNW
ATLAS 5 CENTAUR R/B 3.6 17:44:50 10° SSW 18:03:50 64° WNW 18:08:32 10° NNE
COSMOS 2428 3.7 18:08:46 30° S 18:08:46 30° S 18:11:38 10° S
Meteor 1-31 Rocket 3.3 18:06:01 10° NNE 18:09:51 58° E 18:10:27 51° SE
H-2A R/B 3.6 18:07:00 10° NNE 18:10:42 39° E 18:13:48 13° SSE
Sea Lan Dem Rocket 4.3 18:10:00 19° S 18:11:11 21° SSE 18:17:44 10° ESE
Cosmos 2219 Rocket 3.9 18:15:29 17° S 18:15:29 17° S 18:16:45 10° S
ALOS 3.8 18:14:10 10° NNE 18:18:26 36° E 18:22:42 10° SSE
GPS 2-12 Rocket1 4.1 18:20:56 29° NNW 18:21:55 33° N 18:25:58 10° ENE
Cosmos 1980 3.9 18:21:00 10° N 18:26:37 71° ENE 18:32:13 10° SSE
Cosmos 1092 Rocket 4.0 18:23:12 10° S 18:29:31 84° E 18:35:52 10° N
SeaSat 1 3.5 18:29:17 10° SE 18:34:00 47° ENE 18:38:42 10° N
SJ-12 4.0 18:42:52 10° NNE 18:46:56 75° ESE 18:50:58 10° S
Ariane H10 4.3 18:33:09 23° W 18:47:07 63° S 18:52:58 10° ESE
SL-4 R/B 3.7 18:44:57 10° NNW 18:48:57 37° NE 18:53:12 10° ESE
Cosmos 2026 Rocket 4.0 18:42:45 10° S 18:48:59 86° E 18:55:07 10° N
NOSS 0 Rocket 4.1 18:45:13 10° NNW 18:51:02 46° WSW 18:56:52 10° S
Meteor 1-4 Rocket 3.5 18:51:58 27° W 18:52:22 28° W 18:55:37 10° NNW
Cosmos 1975 3.8 18:49:26 10° NW 18:52:47 25° W 18:56:08 10° SSW
CENTAUR R/B 4.0 18:54:34 12° WNW 18:54:56 12° WNW 18:57:10 10° NNW
FENGYUN 3A 3.6 18:50:12 10° N 18:55:34 77° WNW 19:00:55 10° SSW
CZ-2C R/B 4.2 18:53:38 10° NW 18:54:37 12° NW 18:54:37 12° NW
Palapa 6 Rocket 4.0 18:56:36 18° WNW 18:59:27 38° N 19:04:19 10° ENE
Cosmos 1484 Rocket 3.4 18:57:08 10° NNW 19:00:30 32° WNW 19:03:50 10° SW
Cosmos 468 4.5 18:55:46 10° NNW 19:01:03 72° WSW 19:06:20 10° S
Cosmos 1428 Rocket 4.4 18:56:46 10° S 19:02:51 78° W 19:08:58 10° N
METEOR-M 4.2 19:01:50 10° N 19:07:05 60° WNW 19:12:20 10° SSW
Cosmos 2237 Rocket 2.5 19:04:05 10° NW 19:09:24 43° WSW 19:14:44 10° S
Gbstr 26 Del rocket 4.1 19:05:10 10° SW 19:11:55 54° NW 19:17:22 10° NNE
Cosmos 1437 Rocket 2.8 19:09:06 10° S 19:13:08 82° W 19:17:13 10° N
CZ-4B R/B 4.2 19:08:25 10° NNE 19:13:49 53° ESE 19:19:18 10° S
Meteor 1-12 Rocket 4.4 19:08:21 10° NNW 19:14:08 59° W 19:19:49 10° S
Cosmos 2263 Rocket 2.4 19:10:00 10° SSW 19:15:25 51° WNW 19:20:54 10° N
Cosmos 1356 3.3 19:12:54 10° NNW 19:16:16 60° W 19:19:38 10° S
Cosmos 1867 4.3 19:11:38 10° SW 19:16:28 33° WNW 19:21:20 10° N
SWIFT 3.5 19:12:44 10° WNW 19:16:31 33° N 19:20:21 10° ENE
Meteor 2-13 Rocket 4.4 19:10:39 10° S 19:16:41 76° W 19:22:43 10° N
Hubble Space Telescope 1.3 19:15:20 10° W 19:19:11 43° SSW 19:23:08 10° SE
CRYOSAT 2 4.4 19:16:42 10° N 19:21:29 63° W 19:26:16 10° SSW
GPS 2-18 Rocket1 3.1 19:24:34 10° WNW 19:28:31 87° SSW 19:32:23 10° ESE
PAYLOAD B 4.2 19:24:44 10° N 19:30:10 68° WNW 19:35:39 10° SSW
Okean O Rocket 1.7 19:26:50 10° NNE 19:31:14 87° ESE 19:35:40 10° S
